BEIDOU-3 IGSO-1

Last updated on Jan. 15, 2021, 6:31 a.m. UTC

1 44204U 19023A   21014.36915152 -.00000213  00000-0  00000-0 0  9996
2 44204  55.7966  58.5986 0017859 200.8909 101.2521  1.00285910  6502
UTC
Height (km)
Latitude
Longitude
Inclination
Orbital Period
UTC large
Height (km)
Speed (km/s)
/
Latitude / Longitude
Inclination (degrees)
Orbital Period (minutes)
Azimuth
Elevation
Range (km)
Doppler Factor
iOS Compass Heading
iOS Angle

Next 30 passes for location: Hong Kong

Rise time Rise Azimuth (degrees) Set time Set Azimuth (degrees) Duration Max altitude (degrees)

No matching passes for this satellites